User: anonymous   Login
Location: Chatou
(48.8898°N, 2.1586°E)
Time: 15:14:21
(UTC+00:00)
Language:

Cosmos 44 Rocket - Orbit

View from above orbital plane
View from above orbital plane
View from above satellite
View from above satellite

Ground track
Ground track

The orbit data is extracted from the following two-line orbital elements,

1   877U 64053B   23161.35125799  .00000235  00000-0  71908-4 0  9993
2   877  65.0787  29.1804 0075246 321.1236  38.4464 14.59858527120256
Epoch (UTC): 10 June 2023 08:25:48
Eccentricity: 0.0075246
inclination: 65.0787°
perigee height: 640 km
apogee height: 747 km
right ascension of ascending node: 29.1804°
argument of perigee: 321.1236°
revolutions per day: 14.59858527
mean anomaly at epoch: 38.4464°
orbit number at epoch: 12025

The dashed part of the orbit path shows where the satellite is in the earth's shadow,  

DLR